FW8022 Weather Reports


Display with metric or nautical units.
time (UTC)temp
F
wind
direction
speed
MPH
gust
MPH
rain 1hr
in
rain 24hr
in
rain mn
in
humidity
%
barometer
mb
20260904102038 58 302 0.0 2.0 0.01 0.22 0.01 95 1011.3
20260904101552 58 302 0.0 2.0 0.01 0.22 0.01 95 1011.3
20260904101038 59 0 0.0 3.0 0.01 0.22 0.01 95 1011.3
20260904100538 59 300 0.0 3.0 0.01 0.22 0.01 95 1011.3
20260904100049 59 286 1.0 3.0 0.01 0.22 0.01 95 1011.4
20260904095541 59 229 1.0 2.0 0.01 0.22 0.01 95 1011.3
20260904095038 59 0 0.0 2.0 0.01 0.22 0.01 95 1011.3
20260904094556 59 0 0.0 2.0 0.01 0.22 0.01 95 1011.3
20260904094037 59 229 1.0 2.0 0.00 0.21 0.00 95 1011.2
20260904093539 59 229 1.0 2.0 0.00 0.21 0.00 95 1011.3
20260904093055 59 229 1.0 2.0 0.00 0.21 0.00 95 1011.2
20260904092537 59 229 1.0 2.0 0.00 0.21 0.00 95 1011.2
20260904092041 59 229 1.0 2.0 0.00 0.21 0.00 95 1011.2
20260904091603 59 229 1.0 2.0 0.00 0.21 0.00 95 1011.2
20260904091038 59 229 1.0 2.0 0.00 0.21 0.00 95 1011.2
20260904090540 59 229 1.0 3.0 0.00 0.21 0.00 95 1011.2
20260904090056 59 229 1.0 3.0 0.00 0.21 0.00 95 1011.2
20260904085538 59 229 1.0 3.0 0.00 0.21 0.00 95 1011.3
20260904085037 59 229 1.0 3.0 0.00 0.21 0.00 95 1011.3
20260904084554 59 229 1.0 2.0 0.00 0.21 0.00 95 1011.3
20260904084038 59 229 1.0 2.0 0.00 0.21 0.00 95 1011.2
20260904083537 59 229 0.0 3.0 0.00 0.21 0.00 95 1011.2
20260904083105 59 229 1.0 3.0 0.00 0.21 0.00 95 1011.3
20260904082539 59 229 1.0 3.0 0.00 0.21 0.00 95 1011.3
20260904082038 59 229 1.0 3.0 0.00 0.21 0.00 95 1011.2
20260904081554 59 229 0.0 3.0 0.00 0.21 0.00 95 1011.2
20260904081037 59 229 1.0 3.0 0.00 0.21 0.00 95 1011.2
20260904080537 59 229 1.0 2.0 0.00 0.21 0.00 95 1011.2
20260904080053 59 229 0.0 3.0 0.00 0.21 0.00 95 1011.3
20260904075538 60 229 1.0 3.0 0.00 0.21 0.00 95 1011.2
20260904075041 60 229 1.0 3.0 0.00 0.21 0.00 95 1011.2
20260904074603 60 229 1.0 3.0 0.00 0.21 0.00 95 1011.2
20260904074038 60 229 1.0 3.0 0.00 0.21 0.00 95 1011.2
20260904073537 59 218 1.0 3.0 0.00 0.21 0.00 95 1011.2
20260904073057 59 218 1.0 3.0 0.00 0.21 0.00 95 1011.1
20260904072538 59 218 1.0 3.0 0.00 0.21 0.00 95 1011.0
20260904072037 59 237 1.0 2.0 0.00 0.21 0.00 95 1011.0
20260904071554 59 237 1.0 2.0 0.00 0.21 0.00 95 1011.0
20260904071037 59 237 1.0 2.0 0.00 0.21 0.00 95 1011.0
20260904070537 59 0 0.0 3.0 0.00 0.21 0.00 95 1011.0
20260904065538 59 237 0.0 2.0 0.00 0.21 0.21 95 1011.0
20260904065038 59 237 0.0 2.0 0.00 0.21 0.21 95 1011.1
20260904064559 59 0 0.0 2.0 0.00 0.21 0.21 95 1011.1
20260904064038 60 237 0.0 2.0 0.00 0.21 0.21 95 1011.1
20260904063538 59 237 0.0 1.0 0.00 0.21 0.21 95 1011.1
20260904063103 59 0 0.0 2.0 0.00 0.21 0.21 95 1011.0
20260904062537 59 0 0.0 2.0 0.00 0.21 0.21 95 1011.0
20260904062037 59 0 0.0 2.0 0.00 0.21 0.21 95 1010.9
20260904061553 59 237 0.0 2.0 0.00 0.21 0.21 95 1010.9
20260904061037 59 237 1.0 2.0 0.00 0.21 0.21 95 1010.9
20260904060538 59 237 1.0 2.0 0.00 0.21 0.21 95 1011.0
20260904060103 60 237 1.0 2.0 0.00 0.21 0.21 95 1011.0
20260904055537 60 237 0.0 2.0 0.00 0.21 0.21 95 1011.1
20260904055041 59 237 0.0 2.0 0.00 0.21 0.21 95 1011.1
20260904054554 59 237 0.0 2.0 0.00 0.21 0.21 94 1011.2
20260904054038 59 237 0.0 2.0 0.00 0.21 0.21 94 1011.3
20260904053538 59 0 0.0 2.0 0.00 0.21 0.21 94 1011.3
20260904053101 60 237 0.0 1.0 0.00 0.21 0.21 94 1011.4
20260904052538 60 0 0.0 1.0 0.00 0.21 0.21 94 1011.5
20260904052038 59 0 0.0 2.0 0.00 0.21 0.21 94 1011.6
20260904051601 60 0 0.0 2.0 0.00 0.21 0.21 94 1011.5
20260904051037 60 235 0.0 2.0 0.00 0.21 0.21 94 1011.6
20260904050537 60 0 0.0 2.0 0.00 0.21 0.21 94 1011.6
20260904050051 60 0 0.0 2.0 0.00 0.21 0.21 94 1011.6
20260904045538 60 240 0.0 2.0 0.00 0.21 0.21 94 1011.6
20260904045037 60 240 0.0 2.0 0.00 0.21 0.21 94 1011.5
20260904044606 60 0 0.0 1.0 0.00 0.21 0.21 94 1011.6
20260904044037 60 0 0.0 1.0 0.00 0.21 0.21 94 1011.5
20260904043549 60 0 0.0 1.0 0.01 0.21 0.21 94 1011.6
20260904043056 60 0 0.0 1.0 0.01 0.21 0.21 94 1011.6
20260904042537 60 0 0.0 1.0 0.02 0.21 0.21 94 1011.4
20260904042038 60 0 0.0 1.0 0.02 0.21 0.21 94 1011.4
20260904041603 60 0 0.0 1.0 0.03 0.21 0.21 94 1011.3
20260904041040 60 0 0.0 1.0 0.04 0.21 0.21 94 1011.2
20260904040538 60 0 0.0 1.0 0.04 0.21 0.21 94 1011.0
20260904040107 60 0 0.0 1.0 0.06 0.21 0.21 94 1011.0
20260904035538 60 240 0.0 2.0 0.07 0.21 0.21 93 1010.9
20260904035037 60 0 0.0 2.0 0.08 0.21 0.21 93 1010.8
20260904034554 60 240 0.0 2.0 0.09 0.21 0.21 93 1010.9
20260904034041 60 240 0.0 2.0 0.10 0.21 0.21 93 1011.0
20260904033537 60 240 0.0 2.0 0.10 0.20 0.20 93 1010.9
20260904033048 60 0 0.0 2.0 0.11 0.20 0.20 93 1011.0
20260904032536 60 240 0.0 2.0 0.11 0.19 0.19 93 1011.0
20260904032037 60 240 1.0 3.0 0.11 0.19 0.19 93 1010.9
20260904031555 60 261 0.0 4.0 0.10 0.18 0.18 93 1010.8
20260904031037 60 268 1.0 5.0 0.10 0.17 0.17 93 1010.8
20260904030538 60 273 1.0 5.0 0.10 0.17 0.17 93 1010.8
20260904030053 60 267 1.0 6.0 0.09 0.15 0.15 93 1010.8
20260904025537 60 304 2.0 6.0 0.08 0.14 0.14 93 1010.7
20260904025039 60 257 2.0 6.0 0.08 0.13 0.13 93 1010.8
20260904024551 60 300 2.0 6.0 0.08 0.12 0.12 93 1010.8
20260904024041 60 296 2.0 6.0 0.08 0.11 0.11 92 1010.8
20260904023536 60 295 1.0 4.0 0.07 0.10 0.10 92 1010.9
20260904023057 60 317 1.0 6.0 0.07 0.09 0.09 92 1010.8
20260904022538 60 294 1.0 7.0 0.07 0.08 0.08 92 1010.8
20260904022040 61 283 2.0 7.0 0.08 0.08 0.08 92 1010.9
20260904021603 61 276 2.0 6.0 0.08 0.08 0.08 92 1010.9
20260904021037 61 259 1.0 4.0 0.07 0.07 0.07 92 1010.8
20260904020537 61 227 1.0 4.0 0.07 0.07 0.07 91 1011.0
20260904020053 61 228 2.0 4.0 0.06 0.06 0.06 91 1010.9
20260904015537 61 0 2.0 6.0 0.05 0.05 0.05 90 1010.9
20260904015037 62 281 2.0 6.0 0.04 0.04 0.04 90 1010.9
20260904014639 62 268 2.0 8.0 0.04 0.04 0.04 90 1011.0
20260904014037 63 231 3.0 10.0 0.03 0.03 0.03 89 1011.0
20260904013536 64 232 4.0 10.0 0.03 0.03 0.03 90 1011.0
20260904013054 65 229 4.0 9.0 0.02 0.02 0.02 90 1011.0
20260904012537 65 206 5.0 10.0 0.01 0.01 0.01 89 1011.0
20260904012038 65 227 5.0 10.0 0.00 0.00 0.00 89 1010.9
20260904011559 65 202 4.0 11.0 0.00 0.00 0.00 88 1010.9
20260904011038 65 173 5.0 13.0 0.00 0.00 0.00 88 1010.9
20260904010538 65 188 6.0 13.0 0.00 0.00 0.00 88 1010.9
20260904010100 65 190 7.0 13.0 0.00 0.00 0.00 87 1010.9
20260904005537 65 205 7.0 13.0 0.00 0.00 0.00 87 1010.9
20260904005037 65 190 6.0 12.0 0.00 0.00 0.00 87 1010.9
20260904004600 65 200 6.0 12.0 0.00 0.00 0.00 87 1010.9
20260904004037 66 207 5.0 13.0 0.00 0.00 0.00 86 1011.0
20260904003537 66 193 7.0 13.0 0.00 0.00 0.00 86 1010.9
20260904003102 66 202 7.0 13.0 0.00 0.00 0.00 86 1010.9
20260904002538 66 194 6.0 13.0 0.00 0.00 0.00 86 1010.9
20260904002038 66 159 6.0 12.0 0.00 0.00 0.00 85 1011.0
20260904001551 66 216 7.0 12.0 0.00 0.00 0.00 85 1011.0
20260904001037 66 183 5.0 12.0 0.00 0.00 0.00 85 1011.1
20260904000540 66 206 5.0 16.0 0.00 0.00 0.00 85 1011.2
20260904000051 66 180 5.0 17.0 0.00 0.00 0.00 84 1011.1
20260903235536 66 202 7.0 19.0 0.00 0.00 0.00 84 1011.1
20260903235037 66 211 7.0 19.0 0.00 0.00 0.00 84 1011.1
20260903234559 66 219 6.0 11.0 0.00 0.00 0.00 83 1011.2
20260903234036 66 200 5.0 12.0 0.00 0.00 0.00 83 1011.3
20260903233538 66 212 7.0 13.0 0.00 0.00 0.00 83 1011.3
20260903233111 67 231 7.0 13.0 0.00 0.00 0.00 81 1011.3
20260903232537 67 204 6.0 9.0 0.00 0.00 0.00 80 1011.5
20260903232037 68 187 4.0 12.0 0.00 0.00 0.00 79 1011.5
20260903231555 68 205 5.0 12.0 0.00 0.00 0.00 79 1011.6
20260903231034 68 189 5.0 11.0 0.00 0.00 0.00 79 1011.6
20260903230536 68 183 4.0 13.0 0.00 0.00 0.00 79 1011.7
20260903230055 68 186 7.0 13.0 0.00 0.00 0.00 79 1011.7
20260903225540 68 191 5.0 12.0 0.00 0.00 0.00 80 1011.8
20260903225038 67 222 5.0 11.0 0.00 0.00 0.00 81 1011.9
20260903224600 68 196 5.0 10.0 0.00 0.00 0.00 81 1012.0
20260903224036 67 216 5.0 12.0 0.00 0.00 0.00 81 1012.1
20260903223537 67 231 5.0 13.0 0.00 0.00 0.00 81 1012.0
20260903223113 67 223 5.0 13.0 0.00 0.00 0.00 81 1012.1
20260903222536 67 206 4.0 9.0 0.00 0.00 0.00 81 1012.1
20260903222040 67 276 5.0 9.0 0.00 0.00 0.00 82 1012.1
20260903221554 67 169 4.0 10.0 0.00 0.00 0.00 81 1012.1
20260903221038 67 238 4.0 10.0 0.00 0.00 0.00 81 1012.2
20260903220536 67 227 4.0 9.0 0.00 0.00 0.00 81 1012.3
20260903220127 67 205 4.0 9.0 0.00 0.00 0.00 81 1012.3
20260903215537 67 183 5.0 11.0 0.00 0.00 0.00 82 1012.3
20260903215037 67 180 5.0 12.0 0.00 0.00 0.00 82 1012.5
20260903214550 67 209 7.0 14.0 0.00 0.00 0.00 82 1012.5
20260903214037 67 180 7.0 16.0 0.00 0.00 0.00 82 1012.5
20260903213537 67 186 8.0 16.0 0.00 0.00 0.00 82 1012.6
20260903213055 67 210 6.0 13.0 0.00 0.00 0.00 82 1012.7
20260903212539 66 244 4.0 12.0 0.00 0.00 0.00 83 1012.8
20260903212035 66 227 5.0 12.0 0.00 0.00 0.00 82 1012.8
20260903211555 67 223 3.0 8.0 0.00 0.00 0.00 82 1012.9
20260903211037 67 235 4.0 12.0 0.00 0.00 0.00 81 1013.0
20260903210537 67 207 4.0 12.0 0.00 0.00 0.00 80 1013.0
20260903210058 67 192 4.0 13.0 0.00 0.00 0.00 80 1013.0
20260903205538 67 227 7.0 13.0 0.00 0.00 0.00 80 1012.9
20260903205037 68 161 6.0 13.0 0.00 0.00 0.00 80 1012.9
20260903204547 67 189 8.0 11.0 0.00 0.00 0.00 79 1012.9
20260903204036 67 219 4.0 14.0 0.00 0.00 0.00 80 1012.8
20260903203536 67 203 6.0 14.0 0.00 0.00 0.00 79 1012.9
20260903203105 67 211 4.0 10.0 0.00 0.00 0.00 79 1012.9
20260903202537 67 207 5.0 10.0 0.00 0.00 0.00 80 1012.9
20260903202037 67 222 5.0 10.0 0.00 0.00 0.00 80 1012.9
20260903201553 67 198 5.0 10.0 0.00 0.00 0.00 80 1012.8
20260903201037 67 212 4.0 14.0 0.00 0.00 0.00 79 1012.8
20260903200537 68 223 5.0 14.0 0.00 0.00 0.00 78 1012.9
20260903200052 68 199 6.0 17.0 0.00 0.00 0.00 78 1013.0
20260903195538 68 205 7.0 17.0 0.00 0.00 0.00 78 1013.0
20260903195036 68 184 8.0 17.0 0.00 0.00 0.00 77 1013.2
20260903194548 68 168 8.0 15.0 0.00 0.00 0.00 77 1013.2
20260903194037 68 197 6.0 15.0 0.00 0.00 0.00 79 1013.3
20260903193536 67 175 6.0 13.0 0.00 0.00 0.00 79 1013.3
20260903193053 68 215 5.0 13.0 0.00 0.00 0.00 78 1013.3
20260903192544 68 206 5.0 10.0 0.00 0.00 0.00 78 1013.3
20260903192040 68 228 6.0 10.0 0.00 0.00 0.00 77 1013.3
20260903191551 68 236 4.0 10.0 0.00 0.00 0.00 78 1013.3
20260903191039 68 211 4.0 9.0 0.00 0.00 0.00 77 1013.3
20260903190541 69 200 4.0 10.0 0.00 0.00 0.00 76 1013.4
20260903190051 69 196 5.0 10.0 0.00 0.00 0.00 75 1013.4
20260903185540 69 240 3.0 10.0 0.00 0.00 0.00 77 1013.4
20260903185038 68 217 5.0 13.0 0.00 0.00 0.00 77 1013.4
20260903184555 67 241 6.0 13.0 0.00 0.00 0.00 78 1013.4
20260903184039 67 192 7.0 12.0 0.00 0.00 0.00 78 1013.5
20260903183536 67 203 4.0 11.0 0.00 0.00 0.00 80 1013.5
20260903183053 66 170 6.0 12.0 0.00 0.00 0.00 80 1013.5
20260903182539 66 205 7.0 12.0 0.00 0.00 0.00 81 1013.5
20260903182038 66 209 6.0 13.0 0.00 0.00 0.00 81 1013.6
20260903181551 66 190 7.0 13.0 0.00 0.00 0.00 81 1013.6
20260903181038 65 227 6.0 13.0 0.00 0.00 0.00 81 1013.6
20260903180539 65 142 7.0 12.0 0.00 0.00 0.00 82 1013.6
20260903180051 65 200 5.0 12.0 0.00 0.00 0.00 81 1013.6
20260903175538 65 173 7.0 12.0 0.00 0.00 0.00 81 1013.5
20260903175037 65 197 5.0 10.0 0.00 0.00 0.00 81 1013.5
20260903174558 65 201 4.0 9.0 0.00 0.00 0.00 81 1013.5
20260903174040 65 201 4.0 10.0 0.00 0.00 0.00 81 1013.5
20260903173538 65 221 5.0 14.0 0.00 0.00 0.00 82 1013.5
20260903173058 65 250 4.0 14.0 0.00 0.00 0.00 82 1013.5
20260903172539 64 179 6.0 13.0 0.00 0.00 0.00 83 1013.5
20260903172039 64 219 4.0 10.0 0.00 0.00 0.00 83 1013.5
20260903171553 64 192 5.0 10.0 0.00 0.00 0.00 83 1013.5
20260903171039 64 191 6.0 10.0 0.00 0.00 0.00 82 1013.5
20260903170538 64 161 5.0 10.0 0.00 0.00 0.00 82 1013.6
20260903170051 64 219 5.0 10.0 0.00 0.00 0.00 82 1013.7
20260903165538 64 229 4.0 10.0 0.00 0.00 0.00 82 1013.7
20260903165042 64 181 5.0 9.0 0.00 0.00 0.00 82 1013.7
20260903164602 64 176 5.0 11.0 0.00 0.00 0.00 82 1013.7
20260903164039 64 234 3.0 11.0 0.00 0.00 0.00 82 1013.8
20260903163541 64 173 5.0 10.0 0.00 0.00 0.00 82 1013.8
20260903163054 64 252 3.0 8.0 0.00 0.00 0.00 83 1013.8
20260903162540 63 228 4.0 9.0 0.00 0.00 0.00 83 1013.8
20260903162037 63 214 6.0 14.0 0.00 0.00 0.00 83 1013.8
20260903161559 63 193 4.0 14.0 0.00 0.00 0.00 83 1013.9
20260903161036 63 204 7.0 14.0 0.00 0.00 0.00 83 1013.9
20260903160536 63 191 4.0 9.0 0.00 0.00 0.00 83 1013.9
20260903160051 63 183 4.0 7.0 0.00 0.00 0.00 83 1013.9
20260903155540 63 192 4.0 8.0 0.00 0.00 0.00 83 1014.0
20260903155036 63 196 3.0 8.0 0.00 0.00 0.00 84 1014.0
20260903154556 63 167 4.0 8.0 0.00 0.00 0.00 84 1013.8
20260903154037 63 203 4.0 8.0 0.00 0.00 0.00 84 1013.7
20260903153536 63 187 3.0 7.0 0.00 0.00 0.00 85 1013.9
20260903153054 62 198 3.0 6.0 0.00 0.00 0.00 85 1013.9
20260903152537 62 186 2.0 4.0 0.00 0.00 0.00 85 1013.9
20260903152037 62 173 2.0 5.0 0.00 0.00 0.00 86 1014.0
20260903151553 62 196 0.0 5.0 0.00 0.00 0.00 86 1014.0
20260903151036 61 184 1.0 5.0 0.00 0.00 0.00 86 1013.9
20260903150536 61 158 0.0 1.0 0.00 0.00 0.00 86 1013.9
20260903150108 61 158 0.0 3.0 0.00 0.00 0.00 86 1013.9
20260903145537 61 158 0.0 3.0 0.00 0.00 0.00 87 1013.8
20260903145037 61 158 0.0 3.0 0.00 0.00 0.00 88 1013.8
20260903144547 61 158 0.0 4.0 0.00 0.00 0.00 88 1013.8
20260903144037 60 138 1.0 4.0 0.00 0.00 0.00 89 1013.8
20260903143537 60 157 1.0 3.0 0.00 0.00 0.00 90 1013.8
20260903143056 60 157 1.0 3.0 0.00 0.00 0.00 90 1013.8
20260903142537 60 146 1.0 3.0 0.00 0.00 0.00 90 1013.8
20260903142037 59 146 1.0 3.0 0.00 0.00 0.00 90 1013.7
20260903141551 59 0 0.0 2.0 0.00 0.00 0.00 91 1013.7
20260903141036 59 0 0.0 4.0 0.00 0.00 0.00 91 1013.6
20260903140536 59 193 1.0 4.0 0.00 0.00 0.00 91 1013.7
20260903140053 59 172 1.0 4.0 0.00 0.00 0.00 91 1013.7
20260903135536 59 171 1.0 4.0 0.00 0.00 0.00 91 1013.7
20260903135036 59 146 0.0 6.0 0.00 0.00 0.00 92 1013.7
20260903134616 59 179 1.0 6.0 0.00 0.00 0.00 92 1013.7
20260903134034 59 187 2.0 6.0 0.00 0.00 0.00 92 1013.7
20260903133535 59 145 1.0 4.0 0.00 0.00 0.00 92 1013.6
20260903133100 58 0 0.0 2.0 0.00 0.00 0.00 92 1013.6
20260903132532 58 0 0.0 2.0 0.00 0.00 0.00 92 1013.6
20260903132036 59 186 0.0 1.0 0.00 0.00 0.00 92 1013.7
20260903131552 58 0 0.0 1.0 0.00 0.00 0.00 92 1013.7
20260903131036 59 0 0.0 1.0 0.00 0.00 0.00 92 1013.7
20260903130534 59 0 0.0 2.0 0.00 0.00 0.00 92 1013.6
20260903130101 59 0 0.0 2.0 0.00 0.00 0.00 92 1013.6
20260903125536 59 0 0.0 2.0 0.00 0.00 0.00 92 1013.6
20260903125033 59 186 0.0 2.0 0.00 0.00 0.00 92 1013.6
20260903124600 59 0 0.0 3.0 0.00 0.00 0.00 92 1013.6
20260903124036 59 186 1.0 3.0 0.00 0.00 0.00 92 1013.6
20260903123540 59 186 0.0 3.0 0.00 0.00 0.00 92 1013.6
20260903123051 59 0 0.0 2.0 0.00 0.00 0.00 92 1013.6
20260903122533 59 186 0.0 2.0 0.00 0.00 0.00 91 1013.6
20260903122036 59 186 0.0 3.0 0.00 0.00 0.00 92 1013.8
20260903121553 59 0 0.0 3.0 0.00 0.00 0.00 92 1013.8
20260903121033 59 186 0.0 2.0 0.00 0.00 0.00 92 1013.8
20260903120534 59 0 0.0 3.0 0.00 0.00 0.00 92 1013.8
20260903120118 59 186 1.0 3.0 0.00 0.00 0.00 92 1013.9
20260903115532 59 186 1.0 4.0 0.00 0.00 0.00 91 1013.9
20260903115039 59 216 1.0 5.0 0.00 0.00 0.00 91 1014.0
20260903114553 59 212 2.0 5.0 0.00 0.00 0.00 92 1014.0
20260903114033 59 188 2.0 4.0 0.00 0.00 0.00 91 1014.1
20260903113537 60 179 1.0 4.0 0.00 0.00 0.00 91 1014.1
20260903113056 60 149 1.0 3.0 0.00 0.00 0.00 91 1014.2
20260903112537 60 195 0.0 3.0 0.00 0.00 0.00 91 1014.2
20260903112037 60 173 1.0 4.0 0.00 0.00 0.00 92 1014.3
20260903111551 60 184 1.0 5.0 0.00 0.00 0.00 92 1014.3
20260903111039 60 201 1.0 5.0 0.00 0.00 0.00 92 1014.4
20260903110536 60 160 1.0 4.0 0.00 0.00 0.00 91 1014.4
20260903110044 60 195 1.0 4.0 0.00 0.00 0.00 91 1014.4
20260903105537 60 195 2.0 4.0 0.00 0.00 0.00 91 1014.4
20260903105036 60 195 1.0 5.0 0.00 0.00 0.00 91 1014.5
20260903104604 60 193 2.0 5.0 0.00 0.00 0.00 91 1014.5
20260903104040 60 176 2.0 7.0 0.00 0.00 0.00 91 1014.6
20260903103532 60 186 2.0 7.0 0.00 0.00 0.00 91 1014.6
20260903103053 60 171 1.0 6.0 0.00 0.00 0.00 91 1014.5
20260903102535 60 191 2.0 5.0 0.00 0.00 0.00 91 1014.5